Weather in Staraya Toropa

Russia / Tver Oblast     56°16′48″N   31°40′18″E
temp.,
°C
wind,
m/s
gust,
m/s
humid.,
%
clouds,
%
prec.,
mm/h
press.,
hPa
HPBL,
m
19 september, sun
sun1900:00+6e61468100 0.0 1019921
03:00+6e61468100 0.0 1019897
06:00+5e71578100 0.1 1018832
09:00+5e71685100 0.9 1017868
12:00+5ene71690100 1.6 1017885
15:00+5ene71692100 5.3 1017946
18:00+4ene71695100 4.8 10161091
21:00+4ene71697100 9.7 10171057
20 september, mon
mon2000:00+3ene61597100 3.6 10161023
03:00+3ene61497100 6.4 1016999
06:00+3ene61497100 2.5 1015922
09:00+3ene61497100 3.1 1016901
12:00+3ene61397100 0.3 1016855
15:00+3ene61397100 0.3 1016862
18:00+3ene61397100 0.6 1016887
21:00+3ene51297100 0.8 1016888
21 september, tue
tue2100:00+3ene51198100 0.8 1016832
03:00+3ne41098100 1.0 1016777
06:00+3ne41098100 0.3 1015738
09:00+2nne41098100 0.9 1015540
12:00+2nne4998100 1.5 1015481
15:00+3nne4898100 2.2 1015447
18:00+2nne3798100 1.8 1015592
21:00+3n3898100 2.7 1016405
22 september, wed
wed2200:00+3n3898100 0.5 1016386
03:00+4n3898100 1.1 1016366
06:00+4nne3898100 0.6 1016417
09:00+5n3898100 0.8 1016453
12:00+4n3697100 0.0 1016654
15:00+5n3798100 0.1 1016725
18:00+4nne3698100 0.6 1016761
21:00+4n2599100 1.1 1015732
23 september, thu
thu2300:00+4nne2599100 0.1 1014406
03:00+5ne1399100 0.2 1013232
06:00+4ese1398100 0.1 1013211
09:00+5se2497100 0.1 1013322
12:00+6s2493100 0.1 1012703
15:00+6sse2695100 0.1 1011761
18:00+6s3795100 0.3 1011483
21:00+5s3896100 0.5 1010494